Arlington, DC

10:12 AM EDT on July 24, 2016 (GMT -0400)
Ronald Reagan Washington National

Weather History for KDCA - March, 2008

Change the Weather History Date:

Monday, March 3, 2008

  Actual Average Record
Temperature  
Mean Temperature 54 °F 43 °F  
Max Temperature 70 °F 51 °F 79 °F (1923)
Min Temperature 38 °F 34 °F 11 °F (1925)
Degree Days  
Heating Degree Days 11 22  
Month to date heating degree days 54 68  
Since 1 July heating degree days 2759 3176  
Cooling Degree Days 0 0  
Month to date cooling degree days 0 0  
Year to date cooling degree days 0 0  
Growing Degree Days 4 (Base 50)    
Moisture  
Dew Point 37 °F    
Average Humidity 50    
Maximum Humidity 70    
Minimum Humidity 29    
Precipitation  
Precipitation 0.00 in 0.09 in 1.75 in (1909)
Month to date precipitation T 0.28  
Year to date precipitation 5.54 5.71  
Snow  
Snow 0.00 in 0.10 in 7.10 in (1960)
Month to date snowfall 0.0 0.3  
Since 1 July snowfall 4.9 14.4  
Snow Depth 0.00 in    
Sea Level Pressure  
Sea Level Pressure 30.15 in    
Wind  
Wind Speed 13 mph (South)    
Max Wind Speed 28 mph    
Max Gust Speed 33 mph    
Visibility 10 miles    
Events      
T = Trace of Precipitation, MM = Missing Value Source: NWS Daily Summary

Daily Weather History Graph

Daily Weather History Graph

Search for Another Location

Airport or City:

Trip Planner

Search our weather history database for the weather conditions in past years. The results will help you decide how hot, cold, wet, or windy it might be!

Date:

Astronomy

Mar. 03, 2008 Rise Set
Actual Time 6:36 AM EST 6:03 PM EST
Civil Twilight 6:10 AM EST 6:30 PM EST
Nautical Twilight 5:39 AM EST 7:01 PM EST
Astronomical Twilight 5:08 AM EST 7:31 PM EST
Moon 4:19 AM EST (3/3) 1:45 PM EST (3/3)
Length of Visible Light 12h 19m
Length of Day
11h 26m
Waning Crescent, 18% of the Moon is Illuminated
Mar 3
Waning Crescent
Mar 7
New
Mar 14
First Quarter
Mar 21
Full
Mar 29
Last Quarter

Hourly Weather History & Observations

Time (EST) Temp. Windchill Dew Point Humidity Pressure Visibility Wind Dir Wind Speed Gust Speed Precip Events Conditions
12:52 AM 39.9 °F 37.8 °F 24.1 °F 53% 30.32 in 10.0 mi SSW 3.5 mph - N/A   Partly Cloudy
1:52 AM 39.9 °F - 25.0 °F 55% 30.31 in 10.0 mi Calm Calm - N/A   Clear
2:52 AM 37.9 °F 34.4 °F 27.0 °F 65% 30.29 in 10.0 mi South 4.6 mph - N/A   Mostly Cloudy
3:52 AM 39.9 °F 35.1 °F 27.0 °F 60% 30.27 in 10.0 mi South 6.9 mph - N/A   Overcast
4:52 AM 39.9 °F 35.1 °F 28.9 °F 65% 30.26 in 10.0 mi South 6.9 mph - N/A   Mostly Cloudy
5:52 AM 39.9 °F 35.8 °F 30.9 °F 70% 30.26 in 10.0 mi South 5.8 mph - N/A   Scattered Clouds
6:52 AM 42.1 °F 37.1 °F 33.1 °F 70% 30.27 in 10.0 mi South 8.1 mph - N/A   Mostly Cloudy
7:52 AM 45.0 °F 39.7 °F 35.1 °F 68% 30.27 in 10.0 mi South 10.4 mph - N/A   Mostly Cloudy
8:52 AM 50.0 °F - 35.1 °F 57% 30.26 in 10.0 mi South 15.0 mph 23.0 mph N/A   Overcast
9:52 AM 54.0 °F - 35.1 °F 49% 30.25 in 10.0 mi South 19.6 mph 28.8 mph N/A   Mostly Cloudy
10:52 AM 59.0 °F - 37.0 °F 44% 30.24 in 10.0 mi South 17.3 mph - N/A   Scattered Clouds
11:52 AM 62.1 °F - 37.9 °F 41% 30.21 in 10.0 mi South 20.7 mph 26.5 mph N/A   Scattered Clouds
12:52 PM 64.9 °F - 37.0 °F 36% 30.17 in 10.0 mi South 20.7 mph 26.5 mph N/A   Partly Cloudy
1:52 PM 68.0 °F - 35.1 °F 30% 30.13 in 10.0 mi SSW 24.2 mph 28.8 mph N/A   Scattered Clouds
2:52 PM 69.1 °F - 35.1 °F 29% 30.10 in 10.0 mi South 20.7 mph 28.8 mph N/A   Mostly Cloudy
3:52 PM 70.0 °F - 37.0 °F 30% 30.07 in 10.0 mi SSW 16.1 mph 28.8 mph N/A   Mostly Cloudy
4:52 PM 69.1 °F - 39.9 °F 35% 30.04 in 10.0 mi South 17.3 mph 24.2 mph N/A   Mostly Cloudy
5:52 PM 64.0 °F - 43.0 °F 46% 30.03 in 10.0 mi South 13.8 mph 20.7 mph N/A   Mostly Cloudy
6:52 PM 61.0 °F - 43.0 °F 52% 30.02 in 10.0 mi South 12.7 mph - N/A   Mostly Cloudy
7:52 PM 60.1 °F - 44.1 °F 55% 30.01 in 10.0 mi South 16.1 mph - N/A   Scattered Clouds
8:52 PM 59.0 °F - 45.0 °F 60% 29.98 in 10.0 mi South 16.1 mph - N/A   Scattered Clouds
9:52 PM 57.9 °F - 46.0 °F 65% 29.98 in 10.0 mi South 10.4 mph - N/A   Partly Cloudy
10:52 PM 57.9 °F - 46.9 °F 67% 29.98 in 10.0 mi South 13.8 mph - N/A   Partly Cloudy
11:52 PM 62.1 °F - 50.0 °F 65% 29.96 in 10.0 mi South 19.6 mph 25.3 mph N/A   Scattered Clouds